Regional Weather Roundup
Issued by NWS Sioux Falls, SD

Home | Current Version | Previous Version | Text Only | Print | Product List | Glossary On
Versions: 1 2 3 4 5 6 7 8 9 10 11 12 13 14 15 16 17 18 19 20 21 22 23 24 25 26 27 28 29 30 31 32 33 34 35 36 37 38 39 40 41 42 43 44 45 46 47 48 49 50
000
ASUS43 KFSD 182210
RWRFSD

WEATHER ROUNDUP FOR SE SOUTH DAKOTA/SW MINNESOTA/NW IOWA
NATIONAL WEATHER SERVICE SIOUX FALLS SD
500 PM CDT THU SEP 18 2014

NOTE: "FAIR" INDICATES FEW OR NO CLOUDS BELOW 12,000 FEET WITH NO
SIGNIFICANT WEATHER AND OR OBSTRUCTIONS TO VISIBILITY.


SDZ038>040-050-052>070-182300-
SOUTHEAST SOUTH DAKOTA

CITY           SKY/WX    TMP DP  RH WIND       PRES   REMARKS
CHAMBERLAIN    SUNNY     76  61  58 SE16G24   29.83F
HURON          SUNNY     77  60  55 S15G24    29.85F
MADISON        FAIR      73  55  53 S18       29.93F
MITCHELL       SUNNY     78  58  49 SE21G28   29.88F
SIOUX FALLS    MOSUNNY   76  54  46 S16       29.93F
WINNER         FAIR      83  56  39 S21G32    29.81F
YANKTON        SUNNY     73  59  60 SE13G18   29.92F
$$

MNZ071-072-080-081-089-090-097-098-182300-
SOUTHWEST MINNESOTA

CITY           SKY/WX    TMP DP  RH WIND       PRES   REMARKS
FAIRMONT       SUNNY     73  43  33 S12G17    29.98F
JACKSON        SUNNY     73  48  40 SE10      29.99F
LUVERNE        MOSUNNY   73  52  46 S12G18    29.95F
MARSHALL       SUNNY     75  54  46 S17G23    29.93F
MONTEVIDEO     SUNNY     79  55  44 S7G17     29.93F
PIPESTONE      MOSUNNY   73  52  46 S14       29.95F
REDWOOD FALLS  SUNNY     76  49  38 S16       29.95F
TRACY          SUNNY     75  54  47 S10       29.96S
WINDOM         SUNNY     73  48  40 S10       29.98S
WORTHINGTON    SUNNY     72  50  46 S10       29.98S
$$

IAZ001>003-012>014-020>022-031-032-NEZ013-014-SDZ071-182300-
NORTHWEST IOWA

CITY           SKY/WX    TMP DP  RH WIND       PRES   REMARKS
CHEROKEE       SUNNY     73  54  50 S9        29.97F
DENISON        SUNNY     72  57  60 SE10      29.97S
ESTHERVILLE    SUNNY     73  50  44 S15       29.98F
LE MARS        SUNNY     75  57  53 S12       29.95F
ORANGE CITY    SUNNY     75  54  46 S14       29.96F
SHELDON        SUNNY     73  54  49 SE12G18   29.96S
SIOUX CITY     SUNNY     77  56  48 S8G17     29.95F
SPENCER        SUNNY     74  48  39 S14       29.98F
STORM LAKE     SUNNY     72  55  56 S10       29.99F
$$

ABBREVIATIONS USED IN REMARKS
   TC - TEMPERATURE IN CELSIUS
  WCI - WIND CHILL INDEX
   HX - HEAT INDEX
  VSB - VISIBILITY




USA.gov is the U.S. government's official web portal to all federal, state and local government web resources and services.